Year,Month,Day,Hour,Minute,Value (Times are PST for temperature in C)
2010,07,14,00,00,11.20
2010,07,14,00,01,11.10
2010,07,14,00,02,11.10
2010,07,14,00,03,11.10
2010,07,14,00,04,11.10
2010,07,14,00,05,11.10
2010,07,14,00,06,11.00
2010,07,14,00,07,11.00
2010,07,14,00,08,10.90
2010,07,14,00,09,10.90
2010,07,14,00,10,11.00
2010,07,14,00,11,11.00
2010,07,14,00,12,11.00
2010,07,14,00,13,10.90
2010,07,14,00,14,10.90
2010,07,14,00,15,10.90
2010,07,14,00,16,10.90
2010,07,14,00,17,10.90
2010,07,14,00,18,10.90
2010,07,14,00,19,10.90
2010,07,14,00,20,10.90
2010,07,14,00,21,10.90
2010,07,14,00,22,10.90
2010,07,14,00,23,10.90
2010,07,14,00,24,10.90
2010,07,14,00,25,10.80
2010,07,14,00,26,10.80
2010,07,14,00,27,10.80
2010,07,14,00,28,10.80
2010,07,14,00,29,10.80
2010,07,14,00,30,10.80
2010,07,14,00,31,10.80
2010,07,14,00,32,10.80
2010,07,14,00,33,10.80
2010,07,14,00,34,10.70
2010,07,14,00,35,10.70
2010,07,14,00,36,10.70
2010,07,14,00,37,10.70
2010,07,14,00,38,10.70
2010,07,14,00,39,10.60
2010,07,14,00,40,10.60
2010,07,14,00,41,10.60
2010,07,14,00,42,10.60
2010,07,14,00,43,10.60
2010,07,14,00,44,10.60
2010,07,14,00,45,10.60
2010,07,14,00,46,10.50
2010,07,14,00,47,10.50
2010,07,14,00,48,10.50
2010,07,14,00,49,10.50
2010,07,14,00,50,10.40
2010,07,14,00,51,10.40
2010,07,14,00,52,10.40
2010,07,14,00,53,10.40
2010,07,14,00,54,10.40
2010,07,14,00,55,10.40
2010,07,14,00,56,10.40
2010,07,14,00,57,10.40
2010,07,14,00,58,10.40
2010,07,14,00,59,10.40
2010,07,14,01,00,10.40
2010,07,14,01,01,10.40
2010,07,14,01,02,10.40
2010,07,14,01,03,10.40
2010,07,14,01,04,10.40
2010,07,14,01,05,10.40
2010,07,14,01,06,10.40
2010,07,14,01,07,10.40
2010,07,14,01,08,10.40
2010,07,14,01,09,10.40
2010,07,14,01,10,10.40
2010,07,14,01,11,10.40
2010,07,14,01,12,10.40
2010,07,14,01,13,10.40
2010,07,14,01,14,10.40
2010,07,14,01,15,10.40
2010,07,14,01,16,10.40
2010,07,14,01,17,10.50
2010,07,14,01,18,10.50
2010,07,14,01,19,10.50
2010,07,14,01,20,10.50
2010,07,14,01,21,10.50
2010,07,14,01,22,10.40
2010,07,14,01,23,10.40
2010,07,14,01,24,10.40
2010,07,14,01,25,10.40
2010,07,14,01,26,10.40
2010,07,14,01,27,10.40
2010,07,14,01,28,10.40
2010,07,14,01,29,10.40
2010,07,14,01,30,10.50
2010,07,14,01,31,10.50
2010,07,14,01,32,10.50
2010,07,14,01,33,10.50
2010,07,14,01,34,10.40
2010,07,14,01,35,10.40
2010,07,14,01,36,10.40
2010,07,14,01,37,10.40
2010,07,14,01,38,10.40
2010,07,14,01,39,10.40
2010,07,14,01,40,10.40
2010,07,14,01,41,10.30
2010,07,14,01,42,10.30
2010,07,14,01,43,10.30
2010,07,14,01,44,10.30
2010,07,14,01,45,10.30
2010,07,14,01,46,10.30
2010,07,14,01,47,10.30
2010,07,14,01,48,10.30
2010,07,14,01,49,10.30
2010,07,14,01,50,10.30
2010,07,14,01,51,10.30
2010,07,14,01,52,10.30
2010,07,14,01,53,10.30
2010,07,14,01,54,10.30
2010,07,14,01,55,10.30
2010,07,14,01,56,10.30
2010,07,14,01,57,10.30
2010,07,14,01,58,10.30
2010,07,14,01,59,10.40
2010,07,14,02,00,10.40
2010,07,14,02,01,10.40
2010,07,14,02,02,10.40
2010,07,14,02,03,10.30
2010,07,14,02,04,10.30
2010,07,14,02,05,10.30
2010,07,14,02,06,10.30
2010,07,14,02,07,10.30
2010,07,14,02,08,10.30
2010,07,14,02,09,10.30
2010,07,14,02,10,10.20
2010,07,14,02,11,10.20
2010,07,14,02,12,10.20
2010,07,14,02,13,10.20
2010,07,14,02,14,10.20
2010,07,14,02,15,10.20
2010,07,14,02,16,10.20
2010,07,14,02,17,10.20
2010,07,14,02,18,10.20
2010,07,14,02,19,10.20
2010,07,14,02,20,10.20
2010,07,14,02,21,10.20
2010,07,14,02,22,10.20
2010,07,14,02,23,10.20
2010,07,14,02,24,10.10
2010,07,14,02,25,10.10
2010,07,14,02,26,10.10
2010,07,14,02,27,10.10
2010,07,14,02,28,10.10
2010,07,14,02,29,10.10
2010,07,14,02,30,10.10
2010,07,14,02,31,10.10
2010,07,14,02,32,10.10
2010,07,14,02,33,10.10
2010,07,14,02,34,10.10
2010,07,14,02,35,10.10
2010,07,14,02,36,10.10
2010,07,14,02,37,10.10
2010,07,14,02,38,10.10
2010,07,14,02,39,10.10
2010,07,14,02,40,10.10
2010,07,14,02,41,10.10
2010,07,14,02,42,10.10
2010,07,14,02,43,10.10
2010,07,14,02,44,10.10
2010,07,14,02,45,10.10
2010,07,14,02,46,10.10
2010,07,14,02,47,10.10
2010,07,14,02,48,10.10
2010,07,14,02,49,10.10
2010,07,14,02,50,10.10
2010,07,14,02,51,10.10
2010,07,14,02,52,10.10
2010,07,14,02,53,10.10
2010,07,14,02,54,10.10
2010,07,14,02,55,10.20
2010,07,14,02,56,10.20
2010,07,14,02,57,10.20
2010,07,14,02,58,10.20
2010,07,14,02,59,10.20
2010,07,14,03,00,10.20
2010,07,14,03,01,10.20
2010,07,14,03,02,10.20
2010,07,14,03,03,10.10
2010,07,14,03,04,10.10
2010,07,14,03,05,10.10
2010,07,14,03,06,10.10
2010,07,14,03,07,10.10
2010,07,14,03,08,10.00
2010,07,14,03,09,10.00
2010,07,14,03,10,10.00
2010,07,14,03,11,10.00
2010,07,14,03,12,9.90
2010,07,14,03,13,9.90
2010,07,14,03,14,9.90
2010,07,14,03,15,9.90
2010,07,14,03,16,9.90
2010,07,14,03,17,9.90
2010,07,14,03,18,9.90
2010,07,14,03,19,9.90
2010,07,14,03,20,9.90
2010,07,14,03,21,9.90
2010,07,14,03,22,9.90
2010,07,14,03,23,9.90
2010,07,14,03,24,9.90
2010,07,14,03,25,9.90
2010,07,14,03,26,9.90
2010,07,14,03,27,9.90
2010,07,14,03,28,10.00
2010,07,14,03,29,10.00
2010,07,14,03,30,10.00
2010,07,14,03,31,10.00
2010,07,14,03,32,10.00
2010,07,14,03,33,10.00
2010,07,14,03,34,10.00
2010,07,14,03,35,10.00
2010,07,14,03,36,10.00
2010,07,14,03,37,10.00
2010,07,14,03,38,10.00
2010,07,14,03,39,10.00
2010,07,14,03,40,10.00
2010,07,14,03,41,10.00
2010,07,14,03,42,10.00
2010,07,14,03,43,10.00
2010,07,14,03,44,10.10
2010,07,14,03,45,10.10
2010,07,14,03,46,10.10
2010,07,14,03,47,10.10
2010,07,14,03,48,10.10
2010,07,14,03,49,10.10
2010,07,14,03,50,10.10
2010,07,14,03,51,10.10
2010,07,14,03,52,10.10
2010,07,14,03,53,10.10
2010,07,14,03,54,10.10
2010,07,14,03,55,10.10
2010,07,14,03,56,10.10
2010,07,14,03,57,10.10
2010,07,14,03,58,10.00
2010,07,14,03,59,10.00
2010,07,14,04,00,10.00
2010,07,14,04,01,10.00
2010,07,14,04,02,10.00
2010,07,14,04,03,10.00
2010,07,14,04,04,10.00
2010,07,14,04,05,10.00
2010,07,14,04,06,10.00
2010,07,14,04,07,10.00
2010,07,14,04,08,10.00
2010,07,14,04,09,10.00
2010,07,14,04,10,10.00
2010,07,14,04,11,10.00
2010,07,14,04,12,10.00
2010,07,14,04,13,9.90
2010,07,14,04,14,9.90
2010,07,14,04,15,9.90
2010,07,14,04,16,9.90
2010,07,14,04,17,9.90
2010,07,14,04,18,9.90
2010,07,14,04,19,9.90
2010,07,14,04,20,9.90
2010,07,14,04,21,9.90
2010,07,14,04,22,9.90
2010,07,14,04,23,9.90
2010,07,14,04,24,9.90
2010,07,14,04,25,9.90
2010,07,14,04,26,9.90
2010,07,14,04,27,9.90
2010,07,14,04,28,9.90
2010,07,14,04,29,9.80
2010,07,14,04,30,9.80
2010,07,14,04,31,9.80
2010,07,14,04,32,9.80
2010,07,14,04,33,9.80
2010,07,14,04,34,9.80
2010,07,14,04,35,9.80
2010,07,14,04,36,9.80
2010,07,14,04,37,9.80
2010,07,14,04,38,9.80
2010,07,14,04,39,9.80
2010,07,14,04,40,9.80
2010,07,14,04,41,9.80
2010,07,14,04,42,9.80
2010,07,14,04,43,9.80
2010,07,14,04,44,9.80
2010,07,14,04,45,9.80
2010,07,14,04,46,9.80
2010,07,14,04,47,9.80
2010,07,14,04,48,9.80
2010,07,14,04,49,9.80
2010,07,14,04,50,9.80
2010,07,14,04,51,9.80
2010,07,14,04,52,9.80
2010,07,14,04,53,9.80
2010,07,14,04,54,9.80
2010,07,14,04,55,9.80
2010,07,14,04,56,9.80
2010,07,14,04,57,9.80
2010,07,14,04,58,9.90
2010,07,14,04,59,9.90
2010,07,14,05,00,9.90
2010,07,14,05,01,9.90
2010,07,14,05,02,9.90
2010,07,14,05,03,9.90
2010,07,14,05,04,9.90
2010,07,14,05,05,9.90
2010,07,14,05,06,9.90
2010,07,14,05,07,9.90
2010,07,14,05,08,9.90
2010,07,14,05,09,10.00
2010,07,14,05,10,10.00
2010,07,14,05,11,10.00
2010,07,14,05,12,10.00
2010,07,14,05,13,10.00
2010,07,14,05,14,10.00
2010,07,14,05,15,10.00
2010,07,14,05,16,10.00
2010,07,14,05,17,10.10
2010,07,14,05,18,10.10
2010,07,14,05,19,10.10
2010,07,14,05,20,10.20
2010,07,14,05,21,10.20
2010,07,14,05,22,10.20
2010,07,14,05,23,10.20
2010,07,14,05,24,10.30
2010,07,14,05,25,10.30
2010,07,14,05,26,10.30
2010,07,14,05,27,10.30
2010,07,14,05,28,10.40
2010,07,14,05,29,10.40
2010,07,14,05,30,10.40
2010,07,14,05,31,10.50
2010,07,14,05,32,10.60
2010,07,14,05,33,10.60
2010,07,14,05,34,10.60
2010,07,14,05,35,10.70
2010,07,14,05,36,10.70
2010,07,14,05,37,10.70
2010,07,14,05,38,10.70
2010,07,14,05,39,10.70
2010,07,14,05,40,10.80
2010,07,14,05,41,10.80
2010,07,14,05,42,10.80
2010,07,14,05,43,10.80
2010,07,14,05,44,10.80
2010,07,14,05,45,10.80
2010,07,14,05,46,10.90
2010,07,14,05,47,10.90
2010,07,14,05,48,10.90
2010,07,14,05,49,11.00
2010,07,14,05,50,11.00
2010,07,14,05,51,11.00
2010,07,14,05,52,11.00
2010,07,14,05,53,11.10
2010,07,14,05,54,11.10
2010,07,14,05,55,11.10
2010,07,14,05,56,11.10
2010,07,14,05,57,11.10
2010,07,14,05,58,11.20
2010,07,14,05,59,11.20
2010,07,14,06,00,11.20
2010,07,14,06,01,11.20
2010,07,14,06,02,11.30
2010,07,14,06,03,11.30
2010,07,14,06,04,11.30
2010,07,14,06,05,11.30
2010,07,14,06,06,11.30
2010,07,14,06,07,11.30
2010,07,14,06,08,11.30
2010,07,14,06,09,11.30
2010,07,14,06,10,11.30
2010,07,14,06,11,11.30
2010,07,14,06,12,11.40
2010,07,14,06,13,11.40
2010,07,14,06,14,11.40
2010,07,14,06,15,11.40
2010,07,14,06,16,11.40
2010,07,14,06,17,11.50
2010,07,14,06,18,11.50
2010,07,14,06,19,11.50
2010,07,14,06,20,11.50
2010,07,14,06,21,11.60
2010,07,14,06,22,11.60
2010,07,14,06,23,11.60
2010,07,14,06,24,11.70
2010,07,14,06,25,11.70
2010,07,14,06,26,11.80
2010,07,14,06,27,11.80
2010,07,14,06,28,11.90
2010,07,14,06,29,12.00
2010,07,14,06,30,12.00
2010,07,14,06,31,12.10
2010,07,14,06,32,12.20
2010,07,14,06,33,12.30
2010,07,14,06,34,12.40
2010,07,14,06,35,12.50
2010,07,14,06,36,12.60
2010,07,14,06,37,12.70
2010,07,14,06,38,12.70
2010,07,14,06,39,12.80
2010,07,14,06,40,13.00
2010,07,14,06,41,13.10
2010,07,14,06,42,13.20
2010,07,14,06,43,13.40
2010,07,14,06,44,13.50
2010,07,14,06,45,13.70
2010,07,14,06,46,13.80
2010,07,14,06,47,13.80
2010,07,14,06,48,13.90
2010,07,14,06,49,14.00
2010,07,14,06,50,14.10
2010,07,14,06,51,14.20
2010,07,14,06,52,14.20
2010,07,14,06,53,14.30
2010,07,14,06,54,14.30
2010,07,14,06,55,14.30
2010,07,14,06,56,14.30
2010,07,14,06,57,14.30
2010,07,14,06,58,14.30
2010,07,14,06,59,14.30
2010,07,14,07,00,14.40
2010,07,14,07,01,14.50
2010,07,14,07,02,14.50
2010,07,14,07,03,14.50
2010,07,14,07,04,14.60
2010,07,14,07,05,14.60
2010,07,14,07,06,14.70
2010,07,14,07,07,14.70
2010,07,14,07,08,14.60
2010,07,14,07,09,14.50
2010,07,14,07,10,14.50
2010,07,14,07,11,14.50
2010,07,14,07,12,14.60
2010,07,14,07,13,14.60
2010,07,14,07,14,14.60
2010,07,14,07,15,14.70
2010,07,14,07,16,14.80
2010,07,14,07,17,14.90
2010,07,14,07,18,15.00
2010,07,14,07,19,15.00
2010,07,14,07,20,15.10
2010,07,14,07,21,15.20
2010,07,14,07,22,15.30
2010,07,14,07,23,15.40
2010,07,14,07,24,15.50
2010,07,14,07,25,15.60
2010,07,14,07,26,15.70
2010,07,14,07,27,15.80
2010,07,14,07,28,16.00
2010,07,14,07,29,16.10
2010,07,14,07,30,16.20
2010,07,14,07,31,16.20
2010,07,14,07,32,16.20
2010,07,14,07,33,16.30
2010,07,14,07,34,16.30
2010,07,14,07,35,16.30
2010,07,14,07,36,16.40
2010,07,14,07,37,16.50
2010,07,14,07,38,16.50
2010,07,14,07,39,16.60
2010,07,14,07,40,16.60
2010,07,14,07,41,16.50
2010,07,14,07,42,16.50
2010,07,14,07,43,16.50
2010,07,14,07,44,16.50
2010,07,14,07,45,16.60
2010,07,14,07,46,16.60
2010,07,14,07,47,16.60
2010,07,14,07,48,16.70
2010,07,14,07,49,16.70
2010,07,14,07,50,16.70
2010,07,14,07,51,16.70
2010,07,14,07,52,16.80
2010,07,14,07,53,16.80
2010,07,14,07,54,16.90
2010,07,14,07,55,17.10
2010,07,14,07,56,17.20
2010,07,14,07,57,17.30
2010,07,14,07,58,17.40
2010,07,14,07,59,17.50
2010,07,14,08,00,17.40
2010,07,14,08,01,17.40
2010,07,14,08,02,17.30
2010,07,14,08,03,17.30
2010,07,14,08,04,17.30
2010,07,14,08,05,17.30
2010,07,14,08,06,17.20
2010,07,14,08,07,17.10
2010,07,14,08,08,17.00
2010,07,14,08,09,16.90
2010,07,14,08,10,16.80
2010,07,14,08,11,16.80
2010,07,14,08,12,16.70
2010,07,14,08,13,16.70
2010,07,14,08,14,16.70
2010,07,14,08,15,16.70
2010,07,14,08,16,16.70
2010,07,14,08,17,16.70
2010,07,14,08,18,16.70
2010,07,14,08,19,16.70
2010,07,14,08,20,16.70
2010,07,14,08,21,16.70
2010,07,14,08,22,16.70
2010,07,14,08,23,16.70
2010,07,14,08,24,16.80
2010,07,14,08,25,17.00
2010,07,14,08,26,17.10
2010,07,14,08,27,17.30
2010,07,14,08,28,17.40
2010,07,14,08,29,17.40
2010,07,14,08,30,17.40
2010,07,14,08,31,17.40
2010,07,14,08,32,17.50
2010,07,14,08,33,17.40
2010,07,14,08,34,17.50
2010,07,14,08,35,17.50
2010,07,14,08,36,17.60
2010,07,14,08,37,17.60
2010,07,14,08,38,17.60
2010,07,14,08,39,17.70
2010,07,14,08,40,17.70
2010,07,14,08,41,17.80
2010,07,14,08,42,17.80
2010,07,14,08,43,17.80
2010,07,14,08,44,17.80
2010,07,14,08,45,17.80
2010,07,14,08,46,17.80
2010,07,14,08,47,17.80
2010,07,14,08,48,17.80
2010,07,14,08,49,17.80
2010,07,14,08,50,17.80
2010,07,14,08,51,17.90
2010,07,14,08,52,17.90
2010,07,14,08,53,17.90
2010,07,14,08,54,17.90
2010,07,14,08,55,17.90
2010,07,14,08,56,17.90
2010,07,14,08,57,18.00
2010,07,14,08,58,18.10
2010,07,14,08,59,18.10
2010,07,14,09,00,18.10
2010,07,14,09,01,18.20
2010,07,14,09,02,18.30
2010,07,14,09,03,18.30
2010,07,14,09,04,18.30
2010,07,14,09,05,18.30
2010,07,14,09,06,18.40
2010,07,14,09,07,18.40
2010,07,14,09,08,18.40
2010,07,14,09,09,18.30
2010,07,14,09,10,18.40
2010,07,14,09,11,18.40
2010,07,14,09,12,18.50
2010,07,14,09,13,18.60
2010,07,14,09,14,18.60
2010,07,14,09,15,18.70
2010,07,14,09,16,18.70
2010,07,14,09,17,18.70
2010,07,14,09,18,18.70
2010,07,14,09,19,18.70
2010,07,14,09,20,18.70
2010,07,14,09,21,18.70
2010,07,14,09,22,18.60
2010,07,14,09,23,18.60
2010,07,14,09,24,18.50
2010,07,14,09,25,18.50
2010,07,14,09,26,18.60
2010,07,14,09,27,18.60
2010,07,14,09,28,18.60
2010,07,14,09,29,18.60
2010,07,14,09,30,18.60
2010,07,14,09,31,18.50
2010,07,14,09,32,18.30
2010,07,14,09,33,18.30
2010,07,14,09,34,18.30
2010,07,14,09,35,18.20
2010,07,14,09,36,18.20
2010,07,14,09,37,18.20
2010,07,14,09,38,18.30
2010,07,14,09,39,18.30
2010,07,14,09,40,18.30
2010,07,14,09,41,18.30
2010,07,14,09,42,18.30
2010,07,14,09,43,18.40
2010,07,14,09,44,18.40
2010,07,14,09,45,18.40
2010,07,14,09,46,18.40
2010,07,14,09,47,18.40
2010,07,14,09,48,18.50
2010,07,14,09,49,18.40
2010,07,14,09,50,18.40
2010,07,14,09,51,18.30
2010,07,14,09,52,18.30
2010,07,14,09,53,18.20
2010,07,14,09,54,18.20
2010,07,14,09,55,18.20
2010,07,14,09,56,18.20
2010,07,14,09,57,18.20
2010,07,14,09,58,18.20
2010,07,14,09,59,18.20
2010,07,14,10,00,18.20
2010,07,14,10,01,18.30
2010,07,14,10,02,18.30
2010,07,14,10,03,18.40
2010,07,14,10,04,18.40
2010,07,14,10,05,18.50
2010,07,14,10,06,18.60
2010,07,14,10,07,18.70
2010,07,14,10,08,18.80
2010,07,14,10,09,18.90
2010,07,14,10,10,18.90
2010,07,14,10,11,18.80
2010,07,14,10,12,18.80
2010,07,14,10,13,18.70
2010,07,14,10,14,18.70
2010,07,14,10,15,18.70
2010,07,14,10,16,18.70
2010,07,14,10,17,18.70
2010,07,14,10,18,18.60
2010,07,14,10,19,18.60
2010,07,14,10,20,18.70
2010,07,14,10,21,18.70
2010,07,14,10,22,18.70
2010,07,14,10,23,18.80
2010,07,14,10,24,18.80
2010,07,14,10,25,18.90
2010,07,14,10,26,18.90
2010,07,14,10,27,18.90
2010,07,14,10,28,18.90
2010,07,14,10,29,18.80
2010,07,14,10,30,18.80
2010,07,14,10,31,18.80
2010,07,14,10,32,18.80
2010,07,14,10,33,18.90
2010,07,14,10,34,18.90
2010,07,14,10,35,18.90
2010,07,14,10,36,19.00
2010,07,14,10,37,19.10
2010,07,14,10,38,19.10
2010,07,14,10,39,19.10
2010,07,14,10,40,19.10
2010,07,14,10,41,19.20
2010,07,14,10,42,19.20
2010,07,14,10,43,19.20
2010,07,14,10,44,19.20
2010,07,14,10,45,19.30
2010,07,14,10,46,19.40
2010,07,14,10,47,19.60
2010,07,14,10,48,19.70
2010,07,14,10,49,19.80
2010,07,14,10,50,19.80
2010,07,14,10,51,19.90
2010,07,14,10,52,19.80
2010,07,14,10,53,19.70
2010,07,14,10,54,19.60
2010,07,14,10,55,19.60
2010,07,14,10,56,19.60
2010,07,14,10,57,19.50
2010,07,14,10,58,19.40
2010,07,14,10,59,19.30
2010,07,14,11,00,19.40
2010,07,14,11,01,19.50
2010,07,14,11,02,19.50
2010,07,14,11,03,19.40
2010,07,14,11,04,19.40
2010,07,14,11,05,19.20
2010,07,14,11,06,19.10
2010,07,14,11,07,19.10
2010,07,14,11,08,19.10
2010,07,14,11,09,19.10
2010,07,14,11,10,19.20
2010,07,14,11,11,19.30
2010,07,14,11,12,19.40
2010,07,14,11,13,19.50
2010,07,14,11,14,19.50
2010,07,14,11,15,19.40
2010,07,14,11,16,19.40
2010,07,14,11,17,19.40
2010,07,14,11,18,19.40
2010,07,14,11,19,19.50
2010,07,14,11,20,19.50
2010,07,14,11,21,19.40
2010,07,14,11,22,19.40
2010,07,14,11,23,19.50
2010,07,14,11,24,19.60
2010,07,14,11,25,19.60
2010,07,14,11,26,19.60
2010,07,14,11,27,19.60
2010,07,14,11,28,19.60
2010,07,14,11,29,19.60
2010,07,14,11,30,19.60
2010,07,14,11,31,19.70
2010,07,14,11,32,19.70
2010,07,14,11,33,19.70
2010,07,14,11,34,19.60
2010,07,14,11,35,19.60
2010,07,14,11,36,19.50
2010,07,14,11,37,19.50
2010,07,14,11,38,19.50
2010,07,14,11,39,19.60
2010,07,14,11,40,19.70
2010,07,14,11,41,19.70
2010,07,14,11,42,19.70
2010,07,14,11,43,19.60
2010,07,14,11,44,19.70
2010,07,14,11,45,19.60
2010,07,14,11,46,19.60
2010,07,14,11,47,19.60
2010,07,14,11,48,19.60
2010,07,14,11,49,19.70
2010,07,14,11,50,19.70
2010,07,14,11,51,19.70
2010,07,14,11,52,19.80
2010,07,14,11,53,19.80
2010,07,14,11,54,19.90
2010,07,14,11,55,20.00
2010,07,14,11,56,20.10
2010,07,14,11,57,20.10
2010,07,14,11,58,20.10
2010,07,14,11,59,20.00
2010,07,14,12,00,19.90
2010,07,14,12,01,19.80
2010,07,14,12,02,19.80
2010,07,14,12,03,19.80
2010,07,14,12,04,19.90
2010,07,14,12,05,20.00
2010,07,14,12,14,20.20
2010,07,14,12,15,20.10
2010,07,14,12,16,20.10
2010,07,14,12,17,20.20
2010,07,14,12,18,20.20
2010,07,14,12,19,20.30
2010,07,14,12,20,20.40
2010,07,14,12,21,20.50
2010,07,14,12,22,20.60
2010,07,14,12,23,20.60
2010,07,14,12,24,20.70
2010,07,14,12,25,20.70
2010,07,14,12,26,20.70
2010,07,14,12,27,20.70
2010,07,14,12,28,20.70
2010,07,14,12,29,20.60
2010,07,14,12,30,20.60
2010,07,14,12,31,20.60
2010,07,14,12,32,20.70
2010,07,14,12,33,20.90
2010,07,14,12,34,21.00
2010,07,14,12,35,21.00
2010,07,14,12,36,20.90
2010,07,14,12,37,20.80
2010,07,14,12,38,20.80
2010,07,14,12,39,20.80
2010,07,14,12,40,20.90
2010,07,14,12,41,20.90
2010,07,14,12,42,20.90
2010,07,14,12,43,21.00
2010,07,14,12,44,21.00
2010,07,14,12,45,21.10
2010,07,14,12,46,21.10
2010,07,14,12,47,21.20
2010,07,14,12,48,21.30
2010,07,14,12,49,21.30
2010,07,14,12,50,21.20
2010,07,14,12,51,21.10
2010,07,14,12,52,21.00
2010,07,14,12,53,20.90
2010,07,14,12,54,20.90
2010,07,14,12,55,20.90
2010,07,14,12,56,20.80
2010,07,14,12,57,20.80
2010,07,14,12,58,20.80
2010,07,14,12,59,20.80
2010,07,14,13,00,20.80
2010,07,14,13,01,20.90
2010,07,14,13,02,21.00
2010,07,14,13,03,21.10
2010,07,14,13,04,21.20
2010,07,14,13,05,21.10
2010,07,14,13,06,21.00
2010,07,14,13,07,20.90
2010,07,14,13,08,20.80
2010,07,14,13,09,20.80
2010,07,14,13,10,20.80
2010,07,14,13,11,20.70
2010,07,14,13,12,20.80
2010,07,14,13,13,20.80
2010,07,14,13,14,20.90
2010,07,14,13,15,20.90
2010,07,14,13,16,20.90
2010,07,14,13,17,21.00
2010,07,14,13,18,21.00
2010,07,14,13,19,21.10
2010,07,14,13,20,21.10
2010,07,14,13,21,21.20
2010,07,14,13,22,21.10
2010,07,14,13,23,21.10
2010,07,14,13,24,21.10
2010,07,14,13,25,21.10
2010,07,14,13,26,20.90
2010,07,14,13,27,20.80
2010,07,14,13,28,20.80
2010,07,14,13,29,20.80
2010,07,14,13,30,20.80
2010,07,14,13,31,20.80
2010,07,14,13,32,20.80
2010,07,14,13,33,20.80
2010,07,14,13,34,20.90
2010,07,14,13,35,21.10
2010,07,14,13,36,21.20
2010,07,14,13,37,21.30
2010,07,14,13,38,21.30
2010,07,14,13,39,21.40
2010,07,14,13,40,21.40
2010,07,14,13,41,21.50
2010,07,14,13,42,21.40
2010,07,14,13,43,21.40
2010,07,14,13,44,21.30
2010,07,14,13,45,21.30
2010,07,14,13,46,21.20
2010,07,14,13,47,21.20
2010,07,14,13,48,21.20
2010,07,14,13,49,21.20
2010,07,14,13,50,21.20
2010,07,14,13,51,21.10
2010,07,14,13,52,21.00
2010,07,14,13,53,21.00
2010,07,14,13,54,21.10
2010,07,14,13,55,21.10
2010,07,14,13,56,21.30
2010,07,14,13,57,21.20
2010,07,14,13,58,21.30
2010,07,14,13,59,21.30
2010,07,14,14,00,21.40
2010,07,14,14,01,21.40
2010,07,14,14,02,21.30
2010,07,14,14,03,21.30
2010,07,14,14,04,21.30
2010,07,14,14,05,21.30
2010,07,14,14,06,21.20
2010,07,14,14,07,21.20
2010,07,14,14,08,21.20
2010,07,14,14,09,21.20
2010,07,14,14,10,21.20
2010,07,14,14,11,21.10
2010,07,14,14,12,21.10
2010,07,14,14,13,21.00
2010,07,14,14,14,21.00
2010,07,14,14,15,21.00
2010,07,14,14,16,20.90
2010,07,14,14,17,21.00
2010,07,14,14,18,21.10
2010,07,14,14,19,21.20
2010,07,14,14,20,21.30
2010,07,14,14,21,21.40
2010,07,14,14,22,21.50
2010,07,14,14,23,21.50
2010,07,14,14,24,21.50
2010,07,14,14,25,21.50
2010,07,14,14,26,21.60
2010,07,14,14,27,21.60
2010,07,14,14,28,21.60
2010,07,14,14,29,21.40
2010,07,14,14,30,21.30
2010,07,14,14,31,21.20
2010,07,14,14,32,21.20
2010,07,14,14,33,21.30
2010,07,14,14,34,21.40
2010,07,14,14,35,21.40
2010,07,14,14,36,21.40
2010,07,14,14,37,21.40
2010,07,14,14,38,21.40
2010,07,14,14,39,21.30
2010,07,14,14,40,21.30
2010,07,14,14,41,21.40
2010,07,14,14,42,21.40
2010,07,14,14,43,21.50
2010,07,14,14,44,21.50
2010,07,14,14,45,21.50
2010,07,14,14,46,21.60
2010,07,14,14,47,21.60
2010,07,14,14,48,21.50
2010,07,14,14,49,21.50
2010,07,14,14,50,21.50
2010,07,14,14,51,21.50
2010,07,14,14,52,21.60
2010,07,14,14,53,21.60
2010,07,14,14,54,21.60
2010,07,14,14,55,21.60
2010,07,14,14,56,21.60
2010,07,14,14,57,21.50
2010,07,14,14,58,21.50
2010,07,14,14,59,21.50
2010,07,14,15,00,21.50
2010,07,14,15,01,21.60
2010,07,14,15,02,21.60
2010,07,14,15,03,21.70
2010,07,14,15,04,21.60
2010,07,14,15,05,21.60
2010,07,14,15,06,21.50
2010,07,14,15,07,21.40
2010,07,14,15,08,21.40
2010,07,14,15,09,21.40
2010,07,14,15,10,21.30
2010,07,14,15,11,21.20
2010,07,14,15,12,21.20
2010,07,14,15,13,21.10
2010,07,14,15,14,21.00
2010,07,14,15,15,20.90
2010,07,14,15,16,20.90
2010,07,14,15,17,21.00
2010,07,14,15,18,21.10
2010,07,14,15,19,21.10
2010,07,14,15,20,21.20
2010,07,14,15,21,21.20
2010,07,14,15,22,21.30
2010,07,14,15,23,21.40
2010,07,14,15,24,21.40
2010,07,14,15,25,21.40
2010,07,14,15,26,21.50
2010,07,14,15,27,21.40
2010,07,14,15,28,21.50
2010,07,14,15,29,21.50
2010,07,14,15,30,21.60
2010,07,14,15,31,21.60
2010,07,14,15,32,21.60
2010,07,14,15,33,21.70
2010,07,14,15,34,21.80
2010,07,14,15,35,21.70
2010,07,14,15,36,21.70
2010,07,14,15,37,21.70
2010,07,14,15,38,21.80
2010,07,14,15,39,21.80
2010,07,14,15,40,21.90
2010,07,14,15,41,21.90
2010,07,14,15,42,22.00
2010,07,14,15,43,21.90
2010,07,14,15,44,21.90
2010,07,14,15,45,21.80
2010,07,14,15,46,21.80
2010,07,14,15,47,21.80
2010,07,14,15,48,21.80
2010,07,14,15,49,21.70
2010,07,14,15,50,21.70
2010,07,14,15,51,21.70
2010,07,14,15,52,21.80
2010,07,14,15,53,21.80
2010,07,14,15,54,21.80
2010,07,14,15,55,21.80
2010,07,14,15,56,21.80
2010,07,14,15,57,21.70
2010,07,14,15,58,21.70
2010,07,14,15,59,21.70
2010,07,14,16,00,21.70
2010,07,14,16,01,21.80
2010,07,14,16,02,21.80
2010,07,14,16,03,21.90
2010,07,14,16,04,21.90
2010,07,14,16,05,21.90
2010,07,14,16,06,21.90
2010,07,14,16,07,22.00
2010,07,14,16,08,22.10
2010,07,14,16,09,22.20
2010,07,14,16,10,22.30
2010,07,14,16,11,22.30
2010,07,14,16,12,22.30
2010,07,14,16,13,22.40
2010,07,14,16,14,22.40
2010,07,14,16,15,22.40
2010,07,14,16,16,22.30
2010,07,14,16,17,22.30
2010,07,14,16,18,22.30
2010,07,14,16,19,22.30
2010,07,14,16,20,22.30
2010,07,14,16,21,22.30
2010,07,14,16,22,22.20
2010,07,14,16,23,22.00
2010,07,14,16,24,21.90
2010,07,14,16,25,21.90
2010,07,14,16,26,21.90
2010,07,14,16,27,21.90
2010,07,14,16,28,21.80
2010,07,14,16,29,21.70
2010,07,14,16,30,21.70
2010,07,14,16,31,21.60
2010,07,14,16,32,21.60
2010,07,14,16,33,21.60
2010,07,14,16,34,21.60
2010,07,14,16,35,21.50
2010,07,14,16,36,21.50
2010,07,14,16,37,21.50
2010,07,14,16,38,21.60
2010,07,14,16,39,21.50
2010,07,14,16,40,21.50
2010,07,14,16,41,21.60
2010,07,14,16,42,21.50
2010,07,14,16,43,21.40
2010,07,14,16,44,21.30
2010,07,14,16,45,21.20
2010,07,14,16,46,21.20
2010,07,14,16,47,21.20
2010,07,14,16,48,21.10
2010,07,14,16,49,21.10
2010,07,14,16,50,21.10
2010,07,14,16,51,21.20
2010,07,14,16,52,21.20
2010,07,14,16,53,21.20
2010,07,14,16,54,21.20
2010,07,14,16,55,21.20
2010,07,14,16,56,21.20
2010,07,14,16,57,21.20
2010,07,14,16,58,21.30
2010,07,14,16,59,21.40
2010,07,14,17,00,21.50
2010,07,14,17,01,21.60
2010,07,14,17,02,21.60
2010,07,14,17,03,21.60
2010,07,14,17,04,21.60
2010,07,14,17,05,21.70
2010,07,14,17,06,21.60
2010,07,14,17,07,21.40
2010,07,14,17,08,21.40
2010,07,14,17,09,21.40
2010,07,14,17,10,21.50
2010,07,14,17,11,21.60
2010,07,14,17,12,21.70
2010,07,14,17,13,21.70
2010,07,14,17,14,21.60
2010,07,14,17,15,21.70
2010,07,14,17,16,21.70
2010,07,14,17,17,21.60
2010,07,14,17,18,21.60
2010,07,14,17,19,21.60
2010,07,14,17,20,21.50
2010,07,14,17,21,21.50
2010,07,14,17,22,21.40
2010,07,14,17,23,21.40
2010,07,14,17,24,21.50
2010,07,14,17,25,21.50
2010,07,14,17,26,21.60
2010,07,14,17,27,21.60
2010,07,14,17,28,21.60
2010,07,14,17,29,21.60
2010,07,14,17,30,21.60